Location: Condor
(52.3263°N, 114.5541°W)
Time: 11:46:37
(UTC+00:00)

SO-50 - Pass Details

Date: 12 December 2023
Orbit: 608 x 660 km, 64.6° (Epoch: 05 March)

Event Time Altitude Azimuth Distance (km) Brightness Sun altitude
Exits shadow 12:23:30 17° 16° (NNE) 1,637 ? -28.4°
Drops below altitude 10° 12:25:08 10° 34° (NE) 2,031 ? -28.1°
Sets 12:27:54 0° 51° (NE) 2,930 ? -27.7°
